RH
10 10 12 14 11 9 9 9 9 10 11 13 16 16 15 15 14 14 14 14 16 19 20 22 25 25 24 24 24 23 23 24 25 25 26 26 25 24 22 19 16 13 10 8 7 6 5 5 4 4 4 6 7 10 14 17 17 17 17 18 18 19 17 16 16 16 17 19 22 26 27 27 27 29 32 32 28 22 22 32 49 66 80 89 94 91
8 9 11 10 8 9 9 9 9 9 10 14 16 16 16 16 15 15 15 16 19 21 21 23 26 26 25 26 26 26 27 27 27 27 27 27 27 26 24 22 18 14 11 8 7 6 6 5 5 4 4 5 7 10 13 16 16 15 14 13 13 13 13 13 13 14 14 15 15 17 21 25 26 26 26 29 33 32 27 22 22 32 48 65 78 85
7 8 9 8 8 9 9 9 10 9 10 14 16 17 17 16 16 17 17 19 21 22 23 24 27 28 27 28 30 30 30 30 30 30 30 30 29 28 27 24 21 16 12 9 7 7 6 5 5 4 4 5 6 8 11 14 15 14 13 11 11 11 12 13 14 15 16 17 17 15 15 17 21 24 24 24 27 30 33 32 26 21 23 32 47 63
5 6 6 6 7 9 9 10 11 11 12 14 17 18 18 17 17 18 20 22 23 24 24 25 28 30 29 30 33 34 34 34 33 33 33 33 32 31 29 27 23 18 14 10 8 8 7 6 6 5 5 4 5 7 9 12 14 14 13 11 10 10 11 13 15 18 18 18 18 17 16 13 14 19 22 23 23 25 28 31 33 30 25 21 22 31
5 5 5 5 6 8 9 10 12 14 14 15 17 18 18 19 20 20 21 24 26 26 26 26 27 31 33 33 35 38 39 38 36 36 36 36 35 33 31 29 25 20 16 12 10 8 7 7 6 5 5 4 5 6 8 10 13 13 12 10 10 10 10 12 15 18 19 20 20 22 26 23 18 18 20 22 24 26 28 29 31 32 33 31 26 22
5 5 4 5 6 7 8 10 12 13 15 17 18 19 20 21 22 23 24 25 28 28 27 28 27 30 34 34 35 39 42 42 40 39 39 39 38 36 34 31 28 23 18 14 12 10 8 7 7 6 5 5 5 6 7 9 11 12 12 11 10 10 10 11 15 19 23 28 29 33 43 45 39 33 29 27 29 33 35 34 33 32 32 34 35 32
5 5 4 5 6 6 8 10 11 12 15 17 18 19 21 23 24 26 27 27 29 30 30 31 29 29 33 34 36 40 42 44 44 42 43 42 41 40 37 34 31 27 21 17 14 11 9 8 7 7 6 5 5 5 6 7 10 12 12 11 10 10 11 12 18 27 32 36 40 44 51 54 50 45 41 37 36 38 40 40 37 35 34 33 34 34
6 5 5 6 6 7 8 8 10 10 13 17 19 21 21 24 26 27 30 29 30 34 33 33 31 31 36 37 38 41 42 45 47 46 46 46 45 44 41 38 34 30 25 21 18 14 11 9 8 7 6 6 5 5 5 6 8 11 12 12 11 11 12 14 22 35 42 43 46 49 52 52 48 43 42 40 39 38 39 42 42 40 38 36 35 33
7 6 7 7 7 8 7 7 8 8 11 15 18 21 20 23 27 29 31 31 33 36 36 37 35 33 39 42 42 45 46 47 49 50 51 50 50 48 45 42 39 35 30 25 21 17 14 12 9 8 7 6 6 5 4 5 7 9 12 13 12 11 13 18 26 37 44 46 47 49 49 49 47 43 41 38 38 36 35 37 40 42 42 41 39 37
9 8 8 8 8 8 8 8 8 8 10 12 17 21 21 23 27 29 32 33 37 39 38 41 39 34 39 44 46 50 50 51 53 55 56 54 54 52 49 47 43 40 36 30 25 21 17 14 11 9 8 7 6 5 5 5 6 9 12 13 13 12 12 19 29 37 43 44 45 46 45 44 43 43 41 39 37 37 36 36 36 37 40 41 42 43
10 10 10 10 9 9 9 9 9 9 9 11 15 18 19 22 26 28 31 34 39 40 39 44 44 39 41 45 50 55 56 56 57 59 61 59 57 56 53 51 48 45 41 36 30 25 20 18 15 11 9 8 7 6 6 5 5 8 10 13 14 13 13 16 24 33 40 42 43 43 41 40 40 39 38 38 38 38 39 40 40 39 39 40 42 43
11 11 11 11 10 10 10 10 10 10 10 11 13 15 18 23 26 27 28 33 40 42 42 49 49 43 46 51 53 58 62 61 62 63 63 62 61 60 58 55 52 49 46 41 35 30 25 21 18 15 12 9 8 7 6 5 5 6 9 12 14 14 14 14 17 26 34 37 39 39 39 38 38 38 37 37 39 40 42 43 43 43 42 41 41 40
12 12 12 12 12 11 11 11 11 11 10 11 13 16 18 19 21 24 26 31 40 44 46 54 54 45 47 54 56 62 67 65 63 63 63 64 64 63 62 60 57 54 51 47 41 36 31 25 21 18 15 12 9 8 7 6 5 6 8 11 13 14 15 14 14 20 28 32 35 37 38 39 38 38 38 37 39 40 43 44 44 45 45 43 42 39
11 13 13 13 13 13 13 12 12 12 11 11 13 15 17 20 24 28 29 31 37 42 46 55 60 49 44 52 57 64 69 64 61 61 62 66 65 64 65 64 61 58 55 52 47 42 37 31 26 22 19 16 12 9 8 7 6 5 8 11 13 15 16 16 15 16 20 26 31 34 36 39 40 40 39 39 40 40 42 44 45 47 48 48 47 45
11 12 13 13 14 14 15 14 14 14 13 14 14 16 22 29 35 39 40 39 39 42 45 54 64 54 41 48 55 60 64 60 59 61 63 64 65 66 68 67 66 63 60 57 52 48 43 38 32 26 22 19 16 12 9 8 7 5 7 10 13 15 16 17 16 16 17 19 25 30 32 35 38 40 41 41 41 41 42 45 48 50 52 54 56 56
12 13 14 15 16 17 18 18 18 17 16 17 17 19 26 33 39 43 45 46 44 44 45 52 63 54 41 47 53 55 58 57 59 63 62 63 66 69 69 68 70 68 64 62 57 54 49 44 39 32 26 23 19 16 12 9 8 6 6 8 11 15 17 18 18 17 17 17 20 25 28 30 32 34 37 40 41 43 45 47 49 52 56 60 63 66
13 16 16 17 19 20 21 21 21 20 20 22 22 23 26 30 39 45 46 47 46 47 50 53 59 50 38 45 49 49 54 56 61 65 62 65 67 67 68 68 72 72 69 67 63 59 55 50 45 39 32 27 23 20 16 11 9 7 6 7 9 13 16 18 19 18 18 18 19 22 25 27 28 29 32 34 36 39 43 47 50 54 59 63 67 74
13 17 19 20 21 22 23 23 24 23 24 26 26 26 27 28 40 50 51 51 48 49 48 47 57 53 39 44 47 45 54 60 65 67 65 67 67 65 67 69 74 76 73 71 68 64 61 56 51 46 40 34 28 24 20 15 11 8 7 6 7 11 15 19 20 19 19 19 20 21 23 25 27 30 33 35 35 35 36 39 47 55 61 64 66 74
14 18 21 22 22 24 24 24 25 26 26 28 28 30 32 33 43 54 59 58 54 54 46 36 53 61 44 45 50 48 58 66 67 70 67 66 67 66 68 70 75 78 76 74 74 70 67 62 58 53 47 42 35 29 25 21 15 11 8 7 6 8 13 19 22 21 20 19 20 21 23 24 26 29 33 35 37 39 37 35 38 47 57 64 67 70
16 18 22 24 24 25 25 25 27 28 27 28 28 31 34 36 44 52 61 65 60 60 53 35 49 64 50 47 52 51 64 72 69 70 68 66 68 69 70 73 77 79 77 77 77 75 73 69 64 60 55 50 43 35 30 25 20 14 10 8 7 6 9 16 21 22 21 20 19 20 22 23 24 27 31 34 36 38 40 39 35 36 45 58 67 69
19 20 24 26 28 29 28 27 29 30 29 30 31 32 35 40 47 49 56 64 59 59 61 47 51 66 57 51 54 55 65 72 70 71 70 69 71 72 74 78 79 80 79 78 79 79 78 75 71 68 62 57 51 44 36 30 25 20 13 9 8 6 7 11 18 22 23 22 20 19 20 21 24 25 27 33 37 36 38 41 41 37 35 42 56 66
21 22 25 27 30 32 32 31 31 32 31 32 34 35 38 47 53 50 51 57 54 57 65 57 56 66 59 51 54 57 63 71 73 75 73 73 76 77 79 82 81 81 81 80 80 79 81 80 78 75 70 65 59 52 44 36 31 25 18 13 9 8 7 8 12 19 23 25 23 21 19 19 21 24 25 28 34 37 36 38 44 44 38 33 39 52
23 24 26 28 32 36 36 34 33 34 34 35 38 37 41 50 55 54 56 56 53 58 67 61 57 62 58 51 55 57 63 72 77 79 79 79 81 82 82 83 82 81 82 83 83 81 81 82 82 81 78 73 67 61 53 44 37 31 24 18 12 9 8 7 8 13 20 26 27 24 22 20 19 20 23 25 30 35 36 35 39 43 42 37 32 35
26 27 27 27 30 36 38 36 36 38 37 38 40 40 44 51 55 59 62 58 54 60 69 64 57 59 57 54 56 59 65 76 82 84 86 86 86 85 84 83 83 82 84 86 86 84 83 84 86 86 83 80 75 69 62 53 45 37 30 24 18 12 9 7 6 8 13 22 28 28 25 23 20 18 19 22 26 32 35 36 35 36 38 40 36 33
31 34 35 32 29 31 34 34 36 39 41 42 43 44 47 52 56 61 62 56 54 60 68 65 57 57 59 58 57 60 69 82 90 91 93 92 90 88 86 85 84 84 85 87 87 86 85 86 89 90 89 85 81 77 71 63 54 46 37 30 23 16 10 8 7 6 8 14 25 31 30 26 24 20 18 19 22 28 32 36 37 36 34 36 37 37
36 42 47 46 42 41 43 43 44 45 46 47 47 47 50 53 57 63 62 58 58 59 64 65 56 54 59 61 60 63 73 86 93 94 95 95 94 91 88 88 87 87 87 87 88 89 88 88 90 94 95 92 87 83 79 72 64 54 44 36 28 21 14 10 8 7 6 9 16 27 33 31 27 24 21 18 18 23 29 32 37 40 39 37 37 38
37 44 51 53 53 53 55 55 54 54 53 53 51 51 54 55 58 62 63 61 60 57 57 59 56 53 55 59 60 66 77 89 93 92 94 96 96 96 93 91 90 89 89 88 90 92 91 90 92 95 99 100 96 90 85 80 74 65 53 43 34 28 21 14 10 8 7 7 10 18 28 34 33 28 25 22 19 19 24 28 32 37 41 42 42 41
37 44 50 55 57 56 57 58 58 59 58 55 54 54 56 58 59 61 62 60 58 56 53 53 54 51 52 56 60 67 81 93 94 92 94 95 97 98 96 95 94 92 91 91 92 94 95 94 94 95 97 100 102 100 94 87 81 75 65 53 43 36 28 20 13 10 8 7 7 10 18 30 37 35 29 26 24 20 20 24 27 30 35 41 45 46
37 43 48 54 59 59 58 61 62 62 61 58 56 57 57 59 60 62 63 61 59 59 56 52 51 49 49 54 60 68 83 95 97 93 94 95 95 97 97 96 96 95 94 95 95 96 97 97 98 97 95 96 100 103 102 95 89 83 76 66 54 44 35 27 18 12 9 7 7 7 10 18 31 40 38 31 27 25 22 21 23 24 27 32 39 44
39 45 48 52 59 61 60 64 65 63 62 58 57 57 56 58 61 62 62 61 59 60 59 53 48 46 47 52 59 69 83 96 99 93 94 97 95 95 97 96 97 98 98 98 98 98 99 99 98 98 96 96 98 102 104 102 97 91 83 76 66 53 42 33 24 17 12 9 7 7 6 9 18 32 43 41 33 29 27 25 25 24 24 25 30 38
45 49 52 51 57 61 61 65 68 65 61 58 56 56 55 56 58 59 60 60 58 59 60 54 45 42 45 50 58 68 80 93 98 93 93 99 97 94 96 97 98 100 100 100 100 99 100 99 96 95 96 97 99 101 103 103 102 98 91 83 76 64 51 40 31 22 16 11 9 7 6 7 9 18 34 46 45 36 30 30 31 31 28 26 26 31
51 55 57 52 54 60 61 64 67 65 60 57 56 56 55 55 55 55 59 60 58 58 58 53 45 40 43 48 56 65 74 87 97 96 95 100 99 95 97 98 99 101 101 100 100 99 99 98 95 94 94 95 98 100 102 103 104 103 98 90 84 75 62 49 38 28 20 14 11 9 6 6 7 9 18 36 49 50 41 33 33 36 36 35 33 32
56 58 60 56 55 60 63 64 67 65 58 55 56 56 54 54 53 52 57 61 59 59 59 54 46 41 43 48 53 60 67 78 92 98 97 99 98 96 99 99 99 100 101 100 100 99 98 97 96 94 93 93 94 97 100 103 104 104 103 97 91 84 73 60 47 35 26 18 13 10 8 6 6 7 10 19 35 52 56 48 40 37 36 38 40 40
60 61 64 62 58 60 63 64 63 61 58 56 56 57 54 53 52 49 55 63 63 59 57 52 46 44 45 48 52 55 59 68 81 92 95 96 97 98 101 102 100 100 101 100 101 99 97 97 97 96 94 92 92 94 97 101 103 104 105 103 97 91 82 71 57 43 32 24 17 12 10 8 7 6 7 10 19 35 53 61 57 48 40 37 40 44
62 65 66 65 63 62 63 63 57 54 60 61 58 56 53 52 51 47 50 62 66 60 53 47 44 45 46 48 52 54 55 60 71 82 88 91 94 97 102 104 102 101 101 100 100 100 98 98 98 97 95 92 92 93 95 99 103 105 105 104 101 97 90 79 67 52 40 31 22 16 12 10 8 7 5 6 10 19 35 54 65 64 56 46 40 40
66 69 68 67 67 65 64 65 60 54 59 61 58 57 53 49 50 47 46 58 66 58 47 44 42 44 47 49 51 53 53 55 62 72 80 86 91 96 102 103 102 101 102 100 100 100 99 98 98 97 96 93 92 94 95 98 102 104 104 104 103 100 95 88 76 62 49 38 29 21 15 11 9 8 7 5 6 10 21 38 55 66 69 66 56 45
69 70 70 68 69 67 63 64 60 52 52 55 54 54 52 49 52 51 45 51 57 48 40 40 40 42 46 48 50 52 52 53 57 65 74 80 87 94 100 102 101 101 101 101 100 99 99 98 97 96 97 95 93 93 95 97 99 102 103 104 104 101 98 93 85 73 59 46 35 26 19 14 11 9 8 6 5 6 11 23 40 55 67 73 73 66
70 71 72 70 70 69 65 62 58 49 46 52 54 53 52 51 53 52 45 41 42 39 37 39 39 42 45 46 49 52 54 56 60 66 72 77 84 93 99 101 100 100 101 101 100 99 98 97 97 97 97 98 97 95 94 95 96 99 102 103 104 102 100 96 91 83 70 55 43 33 24 17 13 11 9 8 7 5 6 11 24 42 59 69 75 79
69 71 72 68 67 68 66 64 63 54 48 52 54 54 55 54 51 47 40 35 36 37 37 39 40 42 45 46 50 54 58 63 68 72 75 80 87 95 100 100 100 100 100 100 100 100 99 97 97 97 98 99 100 99 98 96 96 98 101 102 102 102 101 99 95 89 80 66 52 41 30 21 16 13 11 9 7 6 6 6 11 26 48 66 73 76
67 68 64 58 57 59 59 59 62 60 53 50 53 56 57 53 47 41 35 32 35 37 37 38 39 41 44 47 52 57 62 69 74 78 82 86 91 97 100 100 100 100 100 100 100 100 100 99 99 99 99 100 101 101 101 100 98 99 101 101 101 101 100 99 98 95 88 77 62 47 37 28 20 15 12 10 9 7 6 5 6 12 29 55 74 78
61 57 48 44 45 48 49 51 56 58 52 47 51 59 58 49 40 35 33 32 34 34 33 34 34 36 41 45 51 59 66 73 78 83 87 91 95 99 100 100 100 100 100 100 100 100 100 100 100 100 99 100 101 101 102 102 99 99 100 101 101 100 98 98 99 98 94 86 71 55 43 34 25 18 14 12 10 9 7 5 5 6 13 33 61 80
52 45 35 34 39 41 40 44 51 55 50 43 44 50 50 41 34 30 29 28 28 27 26 26 28 30 35 41 49 58 66 74 81 88 92 95 99 100 101 100 101 100 100 100 100 100 100 100 100 100 100 100 100 101 101 101 100 99 100 102 102 101 99 97 98 98 96 91 82 66 52 41 31 22 17 14 11 10 8 6 5 5 6 15 37 66
48 41 30 30 38 36 32 42 53 53 43 33 33 40 39 32 27 24 22 20 20 20 19 20 23 27 32 39 48 58 69 78 86 92 97 99 100 100 100 101 100 100 100 100 100 99 100 100 100 100 100 100 100 101 100 101 101 100 100 101 102 101 100 99 98 98 97 94 89 78 63 50 38 28 20 16 13 11 9 8 6 5 5 6 16 42
45 38 28 29 37 31 26 43 56 45 28 21 25 35 34 25 20 18 17 16 16 18 20 22 25 31 38 47 59 70 80 88 94 98 100 100 100 100 100 100 100 100 100 101 101 100 100 100 100 100 100 100 100 101 100 100 100 100 100 101 101 101 101 101 99 99 98 96 93 86 73 59 47 36 25 18 15 13 10 9 7 6 6 5 6 19
35 33 28 30 35 26 24 44 50 32 18 17 19 23 23 18 17 18 18 20 23 27 31 35 41 50 59 69 80 88 93 97 100 101 101 100 100 100 100 100 100 100 100 100 101 100 100 100 100 100 100 100 100 100 100 100 100 100 100 100 100 100 101 101 101 100 98 96 95 92 83 69 56 44 32 22 17 14 12 10 9 7 5 5 5 8
25 29 26 22 23 17 19 36 35 19 14 18 18 19 18 17 19 22 25 31 38 44 51 58 66 76 84 92 97 97 98 101 101 100 101 101 101 100 101 101 101 101 101 101 101 101 100 99 100 100 100 100 100 100 100 100 100 100 100 100 100 100 100 100 101 101 99 97 96 94 89 78 64 51 39 28 21 17 13 11 9 8 6 5 5 5
16 22 19 13 13 10 12 20 20 14 15 18 18 20 21 22 27 33 39 49 58 67 76 84 91 96 98 101 102 99 98 100 102 101 101 100 101 102 102 101 101 101 102 101 100 101 101 100 100 100 100 100 100 100 101 100 100 100 100 100 100 100 101 100 100 101 100 98 96 95 92 84 72 59 47 36 26 20 16 13 10 8 7 6 5 5
10 13 12 10 11 11 10 14 16 17 19 19 21 24 28 35 44 52 62 74 84 91 96 99 101 102 101 100 101 101 100 101 102 103 99 97 101 101 98 98 100 100 101 101 101 101 101 101 101 100 99 100 100 100 100 100 100 100 100 100 100 100 100 100 100 100 101 100 97 95 93 88 79 66 54 42 32 24 19 15 12 10 8 7 6 5
9 9 10 11 12 13 14 18 24 29 32 32 35 40 46 57 70 79 88 96 100 102 102 101 101 102 103 101 102 102 99 95 97 97 91 89 94 94 90 91 88 81 79 85 92 98 101 101 101 101 100 100 100 100 101 100 100 100 100 100 100 100 100 101 100 100 100 100 98 96 94 91 85 73 60 48 39 30 22 17 13 11 9 8 6 5
10 10 12 13 16 19 22 27 34 43 50 56 63 71 79 88 93 96 99 101 101 102 102 101 99 98 96 94 94 92 83 74 75 76 70 68 74 75 71 67 56 43 39 45 55 73 91 100 103 102 101 100 100 100 101 100 100 100 100 99 100 100 100 100 100 100 100 100 100 98 95 93 89 80 66 54 45 38 29 21 15 12 10 9 7 6
12 12 14 18 24 30 37 45 54 62 71 79 86 90 96 100 99 97 98 99 97 94 92 88 82 73 65 59 56 55 49 40 39 43 40 37 40 40 37 32 24 19 20 23 26 39 64 89 103 104 100 100 100 99 100 100 99 100 100 100 100 100 100 100 100 100 100 100 100 100 97 94 92 86 74 59 49 43 37 29 21 15 11 9 8 7
Wind_Speed
28 29 30 30 30 32 33 34 34 35 36 35 35 37 38 39 41 42 43 44 45 47 48 48 49 51 51 51 53 54 55 57 59 60 62 63 64 65 66 67 68 69 71 73 76 78 80 80 80 79 75 69 62 55 52 50 50 50 50 51 51 53 54 53 50 50 50 49 47 45 44 43 42 43 44 45 48 54 63 71 77 79 79 79 80 81
30 31 31 32 33 34 34 35 36 37 37 36 36 37 39 39 40 42 44 45 46 47 48 47 48 50 50 51 52 53 55 56 58 60 61 62 63 64 66 67 67 68 69 71 74 76 78 79 80 80 77 73 66 59 54 52 51 52 53 54 54 54 54 54 51 50 50 49 48 46 44 44 43 43 43 43 44 46 49 56 64 72 78 81 82 82
32 32 33 34 34 35 35 36 37 38 38 37 36 37 38 39 40 41 43 45 47 47 47 47 47 49 50 51 52 53 54 56 58 59 61 62 62 64 65 67 67 68 68 70 72 75 77 78 79 80 78 75 70 63 57 54 54 55 55 56 56 54 52 49 46 45 45 43 44 44 42 42 42 42 42 41 41 43 45 48 52 58 67 75 81 83
34 34 35 35 35 35 35 36 37 38 38 36 36 37 37 39 40 41 42 44 47 47 47 49 48 48 50 51 51 53 54 56 57 59 60 61 62 63 65 66 67 68 69 69 71 73 75 77 78 79 78 76 73 67 61 57 56 56 57 57 56 54 51 47 42 40 38 36 37 38 37 37 37 38 38 38 39 40 42 45 47 50 54 61 69 77
36 36 36 35 35 36 36 36 36 37 37 36 36 37 37 38 39 41 42 43 45 47 48 50 49 48 50 52 52 53 54 55 57 58 59 60 62 63 64 65 66 68 69 69 70 72 74 76 77 78 78 77 74 70 65 61 58 57 57 57 56 53 50 46 41 37 34 32 31 31 31 31 32 32 33 34 36 38 38 40 44 46 48 51 56 63
37 36 36 35 36 36 36 36 36 36 36 35 36 37 38 38 39 41 42 43 44 47 49 51 51 48 49 52 53 54 55 55 56 57 59 60 61 62 63 64 65 66 68 68 69 71 73 75 76 77 77 77 75 71 68 64 60 58 58 58 56 52 48 44 39 34 32 30 28 27 26 27 27 27 29 30 32 33 34 36 38 40 42 46 50 54
37 37 36 36 36 36 36 36 36 37 36 36 37 38 38 38 38 39 41 42 44 47 49 51 51 50 50 53 54 54 55 55 56 57 58 60 61 62 62 63 64 65 66 67 68 69 71 73 75 76 76 76 74 72 70 67 63 60 59 59 57 52 47 42 37 33 31 29 27 25 24 24 24 25 26 28 29 30 30 32 34 36 38 41 45 49
37 37 36 37 37 36 37 37 37 37 37 37 37 38 38 38 39 40 40 42 44 47 49 51 52 52 50 53 54 54 55 55 56 57 58 59 60 61 62 62 64 64 65 66 67 68 70 71 73 75 76 75 74 73 72 69 65 62 60 59 58 53 47 41 37 34 31 28 26 25 24 24 24 24 25 27 27 28 28 30 32 35 37 39 41 44
36 37 37 37 38 37 38 38 38 39 39 38 37 38 39 39 40 40 40 41 43 46 50 50 52 52 51 52 54 54 56 56 57 58 58 59 60 61 62 62 63 63 64 66 67 68 68 70 72 73 74 75 74 73 73 70 66 64 61 58 57 53 48 42 37 33 31 29 27 25 25 24 24 24 24 25 26 27 27 28 31 33 35 37 39 42
36 37 37 38 38 39 39 39 40 40 40 39 39 38 40 40 41 41 41 41 42 45 50 51 52 53 51 52 54 55 56 57 57 57 57 58 59 60 61 61 62 63 63 65 66 67 68 69 70 71 73 74 74 74 74 70 67 64 60 58 56 53 49 42 37 33 31 30 28 26 26 26 25 25 25 25 25 26 26 27 29 30 33 35 37 39
36 37 37 38 39 40 41 41 41 41 41 41 40 40 40 41 41 42 42 42 42 45 49 51 52 53 53 53 54 54 56 57 57 57 57 57 58 59 60 61 62 63 63 64 65 66 68 68 69 70 71 73 73 74 73 71 69 65 60 58 56 54 49 43 37 34 32 31 29 28 27 27 27 27 27 26 26 26 26 26 27 28 30 33 35 38
37 37 38 39 40 41 42 42 43 43 43 42 42 43 42 41 42 43 44 45 44 45 48 50 51 52 52 53 54 54 56 57 57 57 56 57 57 58 60 60 61 62 63 64 64 65 66 67 68 69 70 71 72 73 72 70 69 66 62 58 55 53 50 45 40 35 32 31 30 29 28 28 28 28 28 28 27 27 26 26 27 28 30 31 34 36
37 38 39 40 41 42 42 43 44 44 44 44 44 43 43 43 44 44 46 46 44 45 47 49 51 52 51 53 54 54 55 56 56 57 57 57 57 58 59 60 61 62 62 63 64 64 65 66 67 68 69 70 71 72 72 70 70 67 63 58 55 54 51 48 43 38 34 32 31 30 30 29 29 28 28 28 27 27 27 27 27 28 30 32 34 36
38 38 40 41 42 43 44 44 45 46 46 46 46 46 46 46 46 45 46 47 45 44 45 48 51 53 52 52 53 53 54 55 56 57 58 57 57 58 59 60 60 61 62 62 63 64 65 65 66 67 68 69 69 71 71 70 70 68 63 59 56 54 52 49 46 41 37 34 32 31 31 30 30 29 29 28 27 27 26 27 27 27 29 31 33 36
39 40 42 43 43 44 44 45 46 46 47 47 48 48 47 46 45 45 46 47 46 45 45 47 50 53 53 52 53 53 53 55 57 58 58 58 58 58 59 60 60 61 62 62 62 63 64 65 65 66 67 68 69 69 70 70 70 68 64 59 56 53 50 49 46 43 39 36 34 32 31 30 30 29 29 28 27 26 26 26 27 28 29 30 32 33
40 41 42 43 43 44 44 44 44 46 47 48 48 48 46 45 44 44 45 47 48 48 48 48 50 53 53 52 53 54 54 56 57 58 59 59 59 59 59 60 60 61 61 62 62 62 64 65 65 65 66 67 68 69 69 70 70 68 64 60 57 53 49 47 45 43 40 37 34 32 31 30 29 29 28 27 26 26 26 26 26 27 29 30 30 31
40 41 42 43 43 43 44 44 44 45 46 47 47 47 47 46 45 45 45 46 48 51 51 50 51 53 53 52 53 54 54 56 58 59 59 59 59 59 60 60 60 60 61 61 62 62 63 64 65 65 66 66 67 67 68 69 69 67 64 61 58 54 50 46 44 42 41 38 35 32 31 30 29 29 29 28 28 27 26 25 26 27 28 29 29 28
41 41 42 43 43 43 44 45 44 44 45 45 46 47 48 48 47 46 46 47 49 52 53 51 51 53 54 53 53 54 55 57 58 59 60 60 60 60 61 61 60 60 60 61 62 63 63 64 64 64 65 65 66 66 67 67 67 67 65 62 59 55 51 46 43 41 40 38 35 33 31 30 29 29 29 29 29 28 28 27 27 27 28 28 27 26
42 42 43 44 44 44 46 47 46 45 45 44 45 46 47 48 47 47 48 49 51 52 54 52 49 51 54 54 54 55 56 57 58 59 60 60 61 61 61 61 61 61 61 61 62 63 63 64 64 64 64 65 65 65 65 66 66 66 65 63 60 57 52 47 43 41 39 38 36 34 32 30 30 29 29 29 29 28 28 28 28 27 27 27 27 26
44 44 44 45 46 45 46 48 47 46 46 46 45 45 46 47 47 48 49 50 51 52 54 53 48 48 53 54 54 56 56 57 59 59 60 61 61 62 62 61 61 61 62 62 62 62 63 63 64 64 64 64 64 64 64 65 65 65 64 64 61 58 54 48 44 41 39 37 36 35 33 31 30 30 30 30 30 29 28 28 28 28 27 27 27 26
45 45 45 45 46 46 47 48 47 47 48 48 46 45 46 46 47 48 48 49 50 50 52 53 49 48 52 53 53 55 56 57 59 59 60 62 62 63 62 62 61 62 63 63 62 62 62 63 63 64 64 64 64 64 64 63 64 63 64 64 62 59 55 50 46 42 39 37 35 35 34 33 31 31 31 30 31 30 29 28 28 28 28 27 26 25
45 45 45 46 47 46 47 48 48 48 50 49 47 46 45 45 45 47 48 48 48 48 49 51 49 47 51 53 54 55 56 58 59 59 61 62 63 63 62 62 62 62 63 63 63 62 62 62 63 63 64 63 63 63 63 63 63 63 62 62 62 60 57 53 48 44 40 37 35 34 34 33 32 31 31 31 31 31 30 29 28 27 27 27 26 25
45 46 46 46 47 46 46 48 49 49 50 50 48 46 45 44 44 46 47 47 47 46 47 50 49 48 52 54 54 56 57 58 60 60 61 62 62 63 62 62 63 63 63 62 62 62 62 62 62 62 62 63 63 63 63 62 62 62 61 61 61 60 59 55 51 47 43 38 35 34 33 33 33 32 31 30 30 31 30 30 29 28 27 27 27 26
46 47 47 48 47 46 46 48 49 50 51 50 49 46 44 43 43 44 45 46 47 46 46 49 50 49 52 54 54 56 57 59 60 61 62 62 62 63 63 63 63 64 63 63 63 63 62 62 62 62 62 62 62 62 62 61 61 61 60 60 60 60 59 57 53 49 45 40 36 34 33 33 32 32 31 30 30 30 30 29 29 28 28 27 27 27
46 47 47 49 50 50 49 51 51 51 51 50 49 46 44 43 43 43 45 47 48 46 45 49 51 50 51 53 55 56 58 59 60 61 62 62 63 63 63 63 64 64 64 63 63 63 63 62 61 61 61 61 61 61 60 60 59 59 59 59 59 59 58 57 55 52 48 44 38 35 32 32 32 32 31 31 30 29 29 29 29 28 28 27 27 27
46 46 45 46 48 49 48 49 50 49 49 48 47 45 43 42 42 43 46 47 48 47 46 48 52 51 50 53 55 57 58 58 60 61 62 62 63 64 64 64 65 64 64 64 64 63 63 63 62 61 60 60 60 60 60 59 59 58 58 58 58 57 57 57 55 53 50 46 42 37 34 31 31 31 31 30 29 29 29 29 28 28 28 27 27 27
45 45 43 42 43 43 43 44 46 46 46 46 45 44 42 41 42 43 46 47 48 48 47 48 53 53 52 53 56 57 58 58 60 60 61 62 63 64 65 65 66 65 66 65 65 64 64 63 62 61 60 60 60 60 60 59 58 57 57 57 57 56 56 56 55 54 51 48 44 40 36 32 30 30 30 30 29 28 28 28 28 27 27 27 26 26
45 44 43 40 40 42 42 43 44 44 45 44 43 43 42 41 42 43 46 48 49 50 49 49 52 55 55 55 56 57 57 58 60 61 61 62 63 64 65 66 67 67 67 67 66 65 64 64 63 62 61 60 59 59 60 59 58 57 56 55 55 55 55 55 55 54 52 50 47 43 39 35 31 29 29 30 29 27 27 28 28 27 26 26 26 25
45 44 44 41 40 41 42 42 43 43 43 43 42 42 42 42 43 44 47 49 49 50 51 51 52 55 56 55 55 57 58 59 60 61 61 62 63 64 65 66 67 68 68 68 67 66 65 64 63 62 61 60 59 58 58 59 58 57 56 55 55 54 54 54 54 53 52 51 48 46 42 38 33 30 28 29 30 28 26 26 27 27 26 26 25 25
45 44 44 43 40 41 42 41 41 42 42 42 42 43 43 43 44 46 48 50 50 51 53 54 54 54 55 55 55 56 57 59 60 61 61 62 63 64 66 67 68 69 69 68 68 67 65 64 63 63 61 61 60 59 58 58 57 57 56 56 55 54 53 53 53 52 52 51 50 48 45 41 36 32 29 28 29 29 27 25 26 27 26 26 25 24
44 44 44 44 41 40 41 40 40 42 43 42 43 43 43 44 45 46 50 52 53 53 55 56 56 55 54 55 55 56 57 58 60 61 62 63 64 65 67 68 68 69 69 69 69 68 67 65 64 63 62 61 60 59 57 57 56 56 55 55 54 53 52 52 51 51 51 51 50 49 47 44 40 35 31 28 28 29 29 27 26 26 26 26 25 24
44 43 44 46 43 41 41 41 40 42 42 42 42 43 44 46 47 48 51 54 55 55 56 57 58 57 55 55 55 55 56 58 60 62 62 63 65 66 68 69 69 70 70 70 70 69 68 67 65 64 63 61 60 59 57 56 55 54 54 54 54 53 52 51 50 50 50 50 50 49 48 46 43 39 34 30 27 28 29 29 27 26 26 26 25 24
43 43 43 45 44 41 42 42 41 41 41 42 43 45 46 48 49 48 50 54 55 56 57 58 58 58 56 56 57 56 56 57 59 62 63 64 65 67 68 70 71 71 72 71 71 70 68 67 65 63 62 61 60 59 57 56 55 54 53 53 53 52 51 50 49 49 48 49 49 49 48 47 46 42 37 33 29 27 28 29 29 28 27 26 25 24
42 42 42 44 45 43 43 43 42 41 42 44 45 46 47 49 50 49 49 53 56 57 58 58 58 58 57 57 58 57 57 57 58 61 64 64 65 67 68 70 72 72 73 73 72 71 69 68 66 64 62 61 60 59 57 55 54 54 52 52 51 51 51 50 49 48 47 47 48 48 48 48 47 45 41 36 32 29 27 28 29 29 28 27 26 25
41 41 41 42 44 44 44 45 44 42 43 45 46 47 48 50 51 49 47 50 56 57 57 58 58 58 58 57 58 59 59 58 58 61 64 65 66 67 68 70 72 73 73 74 73 72 70 68 67 64 62 61 60 59 57 55 54 53 52 51 50 50 50 49 48 47 46 46 46 46 47 47 47 46 44 39 35 31 29 28 28 29 29 29 28 27
40 40 41 41 43 45 45 46 46 43 42 44 46 48 50 52 53 52 48 48 55 58 57 57 57 58 58 58 58 60 61 60 59 61 65 66 67 68 69 70 72 73 74 75 74 72 70 69 67 65 63 62 60 58 57 56 54 53 52 51 50 49 49 48 47 46 46 45 45 45 45 46 46 46 45 42 38 34 30 28 28 28 28 29 30 29
39 39 40 41 43 46 46 45 45 44 44 45 47 50 52 54 56 57 52 50 54 58 57 57 57 57 59 59 60 61 63 63 62 63 66 67 68 69 69 70 72 74 75 75 74 73 71 69 68 66 64 62 60 58 57 56 54 52 51 50 50 49 48 48 47 46 45 44 44 44 44 44 45 45 45 44 41 37 33 30 28 28 27 28 29 30
38 39 40 42 44 46 47 46 46 47 47 48 49 52 54 56 58 60 58 54 55 58 58 58 58 59 61 61 61 62 64 66 65 65 67 68 69 69 69 69 72 74 75 75 74 73 71 70 68 67 64 62 60 58 56 55 54 52 51 50 49 49 48 47 47 45 44 43 43 43 43 43 43 44 45 45 43 40 35 32 30 29 28 27 27 28
38 38 40 43 44 45 46 46 47 49 49 49 51 54 57 58 60 62 62 59 58 60 61 61 60 61 62 63 63 64 65 67 68 67 68 70 70 70 69 69 71 73 74 75 74 73 72 70 69 67 65 62 60 58 56 55 54 53 51 50 49 48 48 47 46 45 44 43 42 42 42 42 42 43 44 44 44 42 38 34 32 30 28 27 27 27
38 39 41 43 43 44 45 45 45 48 50 50 52 55 59 60 61 63 64 63 62 63 63 63 62 62 63 64 64 64 65 67 69 69 70 71 71 70 69 70 72 73 74 75 75 73 72 71 69 67 65 63 61 59 56 55 54 53 51 50 49 48 47 47 46 45 43 42 42 41 41 41 41 42 42 43 44 43 41 37 34 31 29 27 27 27
38 40 41 42 41 42 44 45 46 48 49 52 54 57 60 61 62 63 65 64 63 64 64 64 63 63 63 64 64 65 65 66 69 70 71 72 72 70 70 70 72 74 74 75 75 74 73 72 70 68 66 64 62 59 57 55 54 53 51 50 48 48 47 46 45 45 43 42 41 40 40 40 40 41 41 42 43 44 43 39 36 33 30 28 27 26
39 41 41 40 40 42 44 46 49 51 52 54 57 58 60 61 62 63 63 62 61 62 63 63 63 63 64 65 65 66 67 68 69 71 72 73 72 71 70 72 74 75 75 75 75 75 74 73 71 69 67 65 63 60 58 55 54 53 52 50 48 47 47 46 45 44 43 42 40 40 39 39 39 40 40 40 41 43 43 42 39 35 32 30 28 27
39 41 41 40 42 44 45 46 50 53 55 56 57 59 60 60 61 61 61 60 59 61 63 63 63 63 65 66 67 68 68 70 71 72 74 74 73 72 72 73 76 76 76 75 75 75 74 73 72 70 68 66 64 61 59 56 54 53 52 50 48 47 46 45 45 44 43 41 40 40 39 38 38 39 39 39 40 41 42 43 41 38 34 32 29 27
37 40 41 42 43 45 46 47 48 51 54 55 56 58 60 60 59 60 61 60 59 60 63 64 64 64 66 68 69 70 70 71 72 74 75 75 75 74 74 75 77 78 77 76 75 75 75 74 73 71 69 67 65 62 60 57 55 53 52 51 48 46 45 45 44 43 42 41 40 39 38 37 37 37 38 38 39 39 41 42 42 40 37 34 30 28
38 40 42 43 44 45 46 47 48 49 52 54 55 57 59 60 60 61 62 62 62 62 64 66 66 66 68 70 71 72 72 73 74 75 76 76 76 76 77 77 78 78 77 76 75 75 74 74 73 71 70 68 66 63 61 58 55 53 52 51 49 47 45 44 44 43 42 41 39 38 38 37 36 36 37 37 38 38 39 41 42 41 39 35 32 29
40 41 43 44 46 45 44 46 49 50 50 52 54 57 59 61 62 63 63 64 65 65 67 69 70 70 70 71 73 74 74 74 75 76 77 78 78 78 79 79 79 78 77 76 75 74 74 74 73 71 70 69 67 64 62 59 56 53 52 51 50 47 45 44 43 42 41 40 39 38 37 36 35 35 35 35 36 37 38 40 41 41 40 37 34 31
41 43 44 45 47 47 46 47 50 51 49 51 53 56 59 61 62 64 65 66 67 68 70 71 72 72 73 73 75 76 76 76 77 78 79 80 80 80 81 80 79 78 76 75 75 74 73 73 73 71 70 69 68 66 63 60 56 53 52 51 50 48 45 43 43 42 41 39 38 37 36 36 35 34 34 34 34 35 36 38 40 40 40 38 36 32
43 45 46 47 47 49 49 49 51 51 50 51 54 56 59 61 63 65 66 67 69 70 71 72 73 74 75 75 77 78 79 78 79 80 81 81 81 82 81 80 79 78 75 74 74 74 73 73 73 71 69 69 68 67 64 61 57 54 52 51 50 49 46 44 42 41 40 39 38 37 36 35 35 34 33 33 33 34 34 36 38 39 39 39 37 34
44 46 48 49 48 49 50 51 53 53 52 52 55 58 60 62 65 67 67 68 69 71 72 73 74 75 76 77 78 80 81 81 81 82 82 81 81 82 81 80 78 76 74 72 72 72 72 72 72 71 69 68 68 67 65 61 57 54 52 51 50 49 47 44 42 41 39 38 37 36 35 35 34 34 33 33 32 33 33 33 35 37 38 39 38 36
45 46 47 50 50 50 52 53 56 58 57 56 58 60 61 62 65 67 68 69 70 71 73 74 74 75 76 78 79 81 81 81 81 82 81 80 80 80 79 79 77 74 72 70 69 68 68 69 70 70 69 67 67 67 65 61 57 54 52 51 49 48 47 45 43 40 39 38 36 35 35 34 34 33 33 32 32 32 32 32 33 34 36 37 38 37
44 45 47 50 51 52 53 55 57 59 61 61 61 62 63 65 67 68 69 70 70 72 73 75 75 76 76 76 77 79 80 79 79 79 79 78 78 78 77 77 75 73 72 70 69 67 66 65 66 68 67 66 66 66 64 61 57 54 52 51 49 48 47 46 43 40 38 37 36 34 34 33 33 32 32 31 31 31 31 31 31 32 33 35 37 37
Wind_Direction
343 346 349 346 342 342 343 340 340 342 341 340 339 335 335 338 338 338 339 340 341 344 347 349 347 344 347 350 352 355 356 356 356 356 356 356 356 355 354 354 355 356 357 357 357 357 357 357 356 355 354 352 349 343 338 334 332 329 326 323 319 315 310 307 303 298 293 289 286 283 280 278 275 271 266 263 260 256 252 250 249 250 250 251 251 250
346 348 347 344 345 346 343 341 343 343 342 341 337 335 336 339 339 339 340 340 341 344 346 348 347 344 347 351 353 355 356 356 356 355 356 356 355 355 354 354 354 355 357 357 357 357 357 357 357 356 355 354 351 347 340 337 334 333 330 327 322 318 314 311 307 302 297 293 287 282 278 276 274 273 270 266 264 262 258 254 251 249 249 249 250 251
348 348 346 345 346 345 343 343 344 344 344 340 336 337 337 338 341 341 340 340 341 343 344 346 348 346 347 351 353 354 355 355 356 355 355 355 355 354 354 354 353 354 356 357 357 357 357 358 357 357 356 355 353 350 345 340 337 335 334 331 328 324 320 317 313 309 304 300 294 288 282 277 274 274 273 272 268 265 262 259 255 252 250 249 249 249
349 349 347 346 345 344 344 345 344 344 342 338 336 337 338 339 342 342 341 341 340 342 342 345 350 348 348 352 353 353 355 355 355 355 355 355 354 354 354 354 353 353 354 356 356 356 357 358 358 358 357 356 355 353 349 344 340 338 337 335 334 331 328 325 322 318 313 307 300 295 290 284 279 276 276 275 273 269 264 260 257 255 254 253 251 250
350 349 346 345 344 344 345 345 345 344 340 338 337 337 338 340 342 341 342 342 339 340 342 345 351 351 349 351 353 353 354 354 354 354 354 354 354 354 354 353 353 352 352 354 355 356 357 358 359 359 358 357 355 354 352 348 344 340 340 340 339 337 334 332 330 327 322 317 309 303 300 295 289 283 279 277 276 273 268 263 259 257 255 255 254 253
350 349 346 344 344 345 345 344 344 343 340 338 338 338 339 341 341 341 341 342 340 339 343 346 350 352 350 351 353 353 353 353 353 354 354 354 353 353 353 352 353 352 351 352 354 355 356 358 359 359 359 358 356 355 353 351 348 344 344 344 343 341 340 338 336 335 332 327 320 313 309 306 301 294 288 283 280 278 273 267 262 259 257 255 254 254
350 348 347 346 345 345 345 345 344 343 341 340 338 338 339 339 340 341 341 342 341 340 343 346 348 352 352 351 353 352 351 352 352 353 354 353 353 352 352 351 352 352 351 351 353 355 355 357 358 359 360 359 358 356 354 353 351 348 347 347 346 345 345 344 343 342 340 336 330 324 318 313 309 304 299 294 289 284 279 273 267 264 261 260 258 256
349 347 348 347 346 345 345 345 343 343 343 341 339 338 338 338 339 341 342 343 342 340 343 346 348 352 353 351 351 351 350 351 352 353 354 353 352 352 351 351 351 351 350 350 352 354 355 356 358 359 359 360 359 357 356 356 354 351 350 349 349 348 348 349 349 347 344 342 338 332 326 320 315 311 306 301 297 292 287 280 274 270 267 266 265 262
347 347 348 347 346 346 346 346 344 344 344 341 340 338 338 339 339 340 341 344 344 342 343 347 349 352 353 351 350 350 349 351 352 352 353 352 352 351 351 350 350 350 350 350 351 353 354 355 357 358 359 360 359 358 358 357 356 354 353 351 350 350 350 351 351 348 345 343 342 339 333 328 323 319 313 307 303 298 293 287 281 276 272 270 268 267
346 348 348 347 347 346 346 345 345 345 343 342 340 338 338 340 339 338 341 344 346 345 345 347 349 351 351 350 349 349 349 350 352 352 351 351 351 351 350 350 349 349 350 350 350 351 353 355 356 358 359 359 360 359 359 358 358 357 354 352 351 352 352 352 350 347 344 342 341 339 336 332 329 325 321 316 310 304 299 293 288 282 278 274 272 270
346 347 347 347 347 347 346 345 345 344 343 342 340 338 339 340 337 337 340 343 348 349 347 347 348 349 350 349 349 348 348 349 351 351 350 350 351 351 350 349 349 349 350 350 350 350 352 353 355 356 358 359 359 360 360 359 359 358 356 354 353 354 355 353 350 347 344 341 339 337 335 332 330 328 325 322 317 312 307 301 296 291 286 281 277 273
346 346 345 346 347 346 345 344 344 343 342 341 340 340 340 338 337 338 340 344 350 351 349 347 346 348 349 348 348 348 348 349 349 349 349 350 351 350 350 349 349 349 349 350 350 350 350 352 354 355 357 358 359 360 0 360 359 359 358 357 355 354 355 355 354 351 345 341 338 337 334 331 329 328 326 325 322 318 314 310 306 301 296 291 286 281
345 345 344 345 345 345 344 344 343 342 341 341 340 339 338 338 338 339 340 344 349 351 350 347 343 346 349 348 348 348 348 348 348 348 349 349 350 350 350 349 349 349 350 349 349 350 350 350 352 354 355 357 358 359 0 0 360 360 359 358 357 355 356 356 357 355 350 346 342 339 336 333 331 328 327 326 324 322 319 315 311 308 304 300 296 291
342 343 343 344 344 344 344 343 342 341 341 340 340 339 339 340 339 339 341 342 345 349 350 347 342 344 349 349 347 348 348 347 347 347 349 349 349 350 349 349 349 349 350 349 349 349 349 350 351 352 354 356 358 359 1 1 0 0 359 358 357 357 356 356 357 357 354 351 349 345 342 338 334 332 330 328 326 324 321 317 315 312 309 305 301 296
341 341 342 342 342 343 343 342 342 340 340 340 340 340 341 340 338 339 341 341 342 346 348 349 344 342 348 349 348 348 348 347 347 348 349 349 349 350 349 349 350 350 349 349 349 348 349 349 350 351 353 355 357 359 0 1 1 1 -0 358 357 357 356 355 355 356 356 354 352 351 348 345 341 338 335 332 329 327 324 322 320 317 315 312 308 304
339 339 340 340 341 342 342 342 342 341 340 340 340 340 339 338 338 340 340 340 341 342 346 350 345 341 347 350 348 349 349 348 349 348 349 350 349 350 349 350 350 350 349 349 349 349 348 349 349 350 352 353 356 358 359 0 1 1 0 359 357 356 355 354 354 355 355 354 354 352 351 350 348 346 343 340 336 332 328 326 324 323 322 320 319 315
338 337 338 339 340 341 340 341 343 342 342 341 340 339 338 339 339 339 339 340 340 341 344 349 346 341 346 350 348 349 349 349 350 349 350 351 350 350 350 350 350 350 350 350 350 350 349 348 349 350 351 352 354 357 358 360 1 1 1 359 358 356 355 354 353 353 353 354 353 352 351 351 350 349 349 347 344 341 336 332 329 327 327 327 327 325
335 336 337 337 338 340 340 341 343 343 343 342 341 339 339 339 340 339 339 340 341 341 342 348 348 342 345 350 349 349 349 350 351 350 351 352 351 351 351 351 350 350 350 350 350 350 349 348 348 349 350 351 353 355 357 359 0 1 1 0 359 357 355 353 352 351 351 351 352 351 350 349 349 349 349 348 347 346 343 340 336 332 330 331 333 333
332 334 335 335 336 339 339 339 342 343 343 343 342 341 339 340 340 339 340 340 342 342 340 346 350 344 345 350 348 348 350 351 352 351 351 352 352 352 352 351 351 350 351 351 351 350 349 349 348 348 349 350 351 353 355 357 360 1 1 1 359 358 356 353 350 349 349 349 349 348 348 347 348 349 349 348 348 347 346 345 343 338 334 334 336 338
330 332 334 334 335 337 337 338 341 342 342 343 344 343 341 340 340 340 340 340 342 343 340 343 351 347 344 348 348 348 350 351 352 352 351 352 353 353 352 351 351 351 351 352 351 350 349 349 348 348 348 349 350 352 354 356 358 0 1 1 0 359 358 354 350 348 348 347 346 345 345 345 346 347 348 349 349 348 347 347 346 344 341 338 337 339
329 331 333 333 334 337 338 338 340 341 341 343 345 344 342 341 341 340 340 339 341 344 341 342 351 350 344 347 348 348 350 351 352 352 352 353 353 353 353 351 351 352 352 352 351 350 350 349 348 348 348 348 349 350 352 354 357 359 0 1 1 360 358 356 352 348 347 346 344 342 341 341 342 344 346 348 349 349 349 349 349 348 346 344 340 338
329 330 332 332 333 337 338 337 339 340 341 343 346 346 344 342 341 339 339 339 341 345 342 341 349 350 344 346 348 347 349 350 351 353 352 353 353 353 353 351 351 352 351 351 350 350 350 349 348 348 347 348 348 348 350 352 354 357 359 0 0 360 359 357 354 350 347 344 342 341 340 339 338 339 342 345 347 349 350 351 352 351 349 348 346 341
328 329 330 331 333 337 338 336 339 341 342 344 346 346 344 343 342 340 338 339 342 346 344 341 347 349 345 345 347 347 349 350 351 352 353 353 353 353 352 352 351 352 351 350 349 349 350 349 348 348 348 347 347 347 349 351 352 355 357 359 360 360 359 358 356 352 349 344 341 339 338 338 337 336 337 340 344 347 348 351 353 354 352 351 350 347
328 328 329 329 331 335 336 336 339 342 343 345 346 345 345 343 342 340 338 338 341 347 346 341 344 348 345 345 346 347 349 350 350 352 353 352 352 352 352 352 352 352 351 350 348 348 349 349 348 348 348 347 347 347 348 349 351 352 355 357 359 359 360 359 357 354 351 346 341 337 336 336 336 335 334 335 339 343 346 348 351 353 354 352 351 349
329 330 331 330 330 332 334 336 339 342 343 345 345 345 345 343 341 339 337 338 341 345 346 342 342 346 346 346 347 348 350 350 350 352 352 352 352 351 352 352 352 351 351 350 349 348 348 348 348 347 347 347 347 346 346 348 349 350 352 355 357 359 360 359 358 356 353 349 344 338 334 333 334 334 333 332 334 337 341 344 347 349 352 353 352 350
331 332 334 334 334 336 338 339 341 343 344 345 345 344 343 342 341 340 337 338 340 343 346 342 339 343 346 347 348 349 350 350 350 351 351 351 351 351 351 352 352 351 351 350 349 348 348 348 347 346 346 346 347 346 346 347 348 349 350 353 356 358 359 359 359 357 355 352 347 341 335 331 331 332 332 331 330 332 335 339 342 344 347 350 352 352
330 332 334 336 337 340 343 343 344 345 345 345 344 342 342 341 341 340 339 340 340 342 344 343 339 340 345 348 349 349 350 350 349 350 351 350 351 350 351 351 351 351 351 350 350 349 348 347 346 345 345 345 346 346 346 346 347 348 349 351 353 355 357 358 358 358 357 354 350 345 339 333 329 328 329 329 328 328 329 332 336 339 341 345 347 350
329 331 333 335 337 339 342 343 344 344 344 344 342 340 340 341 342 342 341 341 342 342 342 342 341 341 344 347 349 349 349 349 349 350 350 350 350 351 350 351 351 351 351 350 350 349 348 347 346 345 345 345 345 345 345 345 346 347 347 349 350 352 354 356 357 358 357 356 353 349 343 337 330 326 325 325 326 326 325 325 329 332 335 338 341 344
328 330 331 334 337 338 341 343 343 344 343 341 341 340 340 342 343 344 342 342 343 342 341 341 343 343 343 346 349 349 348 349 349 349 350 350 350 350 350 350 350 350 350 350 349 349 348 347 346 345 344 344 344 344 344 344 345 346 346 347 348 349 352 354 356 357 357 356 355 351 347 342 335 328 322 320 322 324 323 321 322 325 329 331 334 338
327 329 330 333 336 337 340 342 342 342 341 340 340 340 339 342 344 345 343 341 342 343 342 342 342 343 343 345 348 348 347 348 348 348 349 349 349 350 349 350 350 349 349 349 348 348 348 347 346 345 344 344 343 344 343 343 344 344 345 345 346 347 349 352 354 356 356 356 356 354 350 346 340 333 325 318 316 318 320 321 319 320 322 325 327 331
327 329 329 331 335 336 337 340 341 340 340 340 340 339 339 341 344 346 343 341 341 343 343 342 341 343 343 344 346 347 346 346 346 346 347 348 348 348 348 348 349 348 348 348 347 347 347 347 346 345 344 343 343 342 343 343 343 343 343 344 344 345 347 349 352 354 355 356 356 355 353 349 345 340 332 322 314 312 314 317 319 318 319 320 322 325
327 329 329 330 333 335 335 338 341 340 339 339 338 338 340 341 344 347 345 341 341 342 343 343 342 343 343 342 344 346 345 345 344 344 345 347 346 347 347 347 347 347 347 347 347 346 346 346 346 345 344 343 342 341 341 341 341 342 342 342 343 343 345 347 349 352 354 355 355 355 354 351 348 344 338 329 319 310 308 310 313 315 317 318 320 322
327 328 329 329 331 334 334 336 340 340 337 337 339 339 340 341 341 346 346 342 340 341 342 343 343 342 342 342 342 343 343 344 344 342 343 344 344 345 346 346 346 346 346 346 346 345 345 345 345 345 344 343 342 340 340 340 340 340 341 341 342 342 342 344 346 349 351 353 354 355 354 353 350 347 343 336 327 316 308 305 306 308 310 314 317 319
327 327 328 328 330 332 334 335 338 340 338 338 340 339 339 339 340 344 347 342 339 341 341 342 342 341 341 341 340 340 341 342 343 340 340 342 342 343 344 344 345 345 345 345 345 344 344 344 344 344 344 343 342 340 339 338 338 339 340 340 341 341 341 342 344 346 349 351 353 354 354 354 353 350 346 342 334 325 314 307 303 303 303 306 310 314
326 326 327 328 329 331 334 334 337 341 341 338 339 337 337 339 338 342 348 344 339 339 340 340 341 340 339 339 338 337 338 340 341 339 338 339 340 341 342 343 344 344 344 344 344 343 343 343 343 343 343 342 342 340 339 338 337 338 339 339 340 340 340 340 341 343 346 349 351 353 353 353 354 352 349 345 340 332 323 313 306 302 300 300 302 305
325 326 327 328 329 331 333 335 336 339 339 336 337 337 337 339 338 339 345 345 340 338 339 339 339 338 337 337 337 336 335 337 339 338 336 337 338 339 341 342 343 343 343 344 344 343 343 342 342 342 342 341 341 340 339 337 336 336 337 338 338 339 339 339 340 341 343 346 348 350 352 353 353 353 351 348 344 338 330 319 310 305 302 299 298 299
326 326 327 329 330 331 332 335 335 336 337 337 338 338 337 338 338 336 340 344 340 337 337 337 338 337 336 336 336 335 333 333 335 336 335 336 336 337 339 341 342 342 342 343 343 343 342 342 341 341 340 340 340 340 339 337 335 335 336 337 337 338 338 338 338 339 340 343 346 348 350 352 353 353 352 350 347 343 337 326 316 309 305 301 299 297
326 327 328 329 331 331 332 335 336 336 338 339 338 338 337 337 337 334 336 340 340 336 336 337 338 337 335 334 334 333 331 331 332 333 333 333 335 336 338 340 341 341 341 342 342 342 342 341 341 340 339 339 339 339 338 337 336 334 334 335 336 336 337 337 337 338 339 340 343 346 348 350 351 352 353 351 350 347 342 334 323 314 307 304 302 299
327 328 329 330 331 331 331 334 336 336 338 338 337 337 336 336 336 334 334 338 339 337 336 336 337 336 334 332 332 332 331 330 330 332 332 332 333 335 337 339 340 340 340 341 341 342 341 341 340 340 339 338 337 337 337 337 336 334 333 333 334 335 335 336 336 337 337 338 340 343 346 348 350 351 352 352 351 349 346 340 331 321 311 305 303 302
329 329 330 331 333 333 332 334 335 334 335 336 336 336 336 335 336 334 334 337 338 337 335 334 334 333 331 330 330 330 330 329 329 330 330 331 332 335 336 338 338 338 339 340 341 341 341 340 340 339 338 338 337 336 336 336 336 334 332 331 332 333 334 335 335 336 336 337 338 340 343 346 348 350 351 352 352 350 348 345 339 330 319 309 303 301
330 330 332 334 336 336 334 334 336 335 334 335 336 336 335 335 335 334 334 336 336 334 332 331 331 330 329 328 328 328 328 328 327 328 329 330 332 334 335 336 335 336 338 339 340 340 340 339 339 339 338 337 336 336 335 335 334 334 332 330 330 332 333 333 334 335 336 336 336 337 341 344 345 347 350 352 352 351 350 348 344 338 328 317 307 301
331 332 336 338 338 337 336 337 337 335 334 335 335 336 335 334 334 333 332 333 333 331 328 327 328 327 326 326 326 326 327 327 326 327 328 329 331 333 334 333 333 335 337 339 339 339 339 338 338 338 338 337 336 335 334 333 333 333 332 330 329 330 331 332 332 333 335 335 335 335 338 341 343 345 348 350 352 351 350 349 348 344 337 326 315 305
331 331 336 339 338 337 338 340 338 333 332 334 334 334 333 333 332 330 328 328 329 328 325 324 325 326 324 324 325 325 325 326 325 326 327 329 330 332 332 332 332 333 336 338 338 338 337 337 337 337 337 336 336 335 334 333 332 332 331 330 328 328 329 330 331 332 333 334 334 334 335 338 341 343 345 348 350 351 351 350 349 349 344 336 325 313
327 328 333 337 336 335 337 339 335 330 329 332 333 332 330 329 329 327 325 324 325 325 324 323 324 325 324 323 324 324 325 325 325 326 327 328 329 330 330 330 330 331 333 336 337 336 336 335 335 335 335 335 335 335 333 332 331 330 330 330 327 326 327 329 329 330 332 333 333 333 334 335 338 341 343 346 348 350 350 350 349 350 349 344 335 323
325 328 331 333 331 331 335 334 329 327 328 330 331 329 327 327 327 326 324 323 324 325 324 323 324 324 324 323 323 324 324 325 326 326 326 327 327 328 328 328 328 329 331 333 335 334 334 333 333 334 334 334 335 334 333 332 330 329 329 329 327 325 325 326 328 329 330 332 333 333 332 333 336 339 341 344 346 348 350 350 349 350 350 347 342 332
325 327 328 329 328 330 333 330 325 325 328 328 328 327 326 326 326 324 323 324 324 325 324 323 323 324 324 323 323 323 324 325 325 325 325 325 325 325 325 325 325 326 328 331 332 333 332 331 331 332 332 332 333 333 332 332 330 328 328 328 327 325 324 324 326 327 328 330 332 332 331 332 333 336 338 341 344 347 348 349 349 349 350 349 346 340
327 326 326 328 328 329 332 329 324 324 327 328 327 326 324 324 323 323 323 324 324 324 323 323 323 323 324 323 322 323 324 324 324 323 323 323 323 323 322 323 323 324 326 328 329 330 330 330 329 330 330 330 331 331 331 331 330 328 327 327 327 326 324 323 324 325 326 328 330 331 331 331 331 333 335 339 342 346 348 348 348 349 349 349 348 345
329 328 328 329 329 328 329 327 323 324 327 328 327 325 324 323 322 322 323 323 323 322 322 322 323 323 323 322 322 322 323 323 322 321 321 321 321 321 320 321 321 322 323 325 326 327 328 328 327 328 328 329 329 329 329 329 329 327 326 326 326 326 324 322 322 323 325 326 328 330 331 330 329 330 333 336 340 344 346 347 347 348 349 349 349 347
330 329 328 327 327 327 326 324 323 323 326 328 326 324 324 323 321 322 322 321 321 321 321 322 323 322 322 322 321 321 321 322 321 320 319 320 319 319 319 319 319 320 321 322 322 323 325 325 325 325 326 327 327 327 327 328 328 327 326 325 325 326 325 322 320 321 323 325 326 328 330 329 328 328 330 333 337 340 344 346 346 347 348 348 348 348
329 328 326 323 324 326 325 325 324 324 326 328 326 324 323 321 320 322 322 321 322 322 321 322 323 322 322 322 321 320 320 320 319 318 318 318 317 317 317 318 319 320 321 320 321 321 320 321 322 322 323 324 324 324 325 326 326 326 325 325 325 325 324 322 319 319 322 323 324 326 328 329 327 326 327 330 333 337 341 343 345 346 347 347 347 348
326 325 323 322 324 325 325 325 324 324 325 325 324 323 323 322 321 322 322 322 323 323 323 323 323 323 322 321 320 319 319 318 318 317 317 317 317 317 317 318 319 320 320 320 320 320 319 319 319 319 320 322 322 322 322 323 324 324 324 324 324 324 323 321 318 318 320 321 322 324 327 328 326 325 325 327 330 334 337 341 344 345 346 346 346 347